map of EBL home
Great Circle Mapper logo
EBL - Airport
Location
City:  Erbil, Iraq
Name:Erbil International Airport
Old (Alt.):Irbil Northwest
ICAO / IATA:ORER / EBL

Details
Type:Airport (Aerodrome, Airfield)
Use:Public/Civil, Military, International (customs port of entry)
Latitude:3614'17"N (36.238056)
Longitude:4356'48"E (43.946667)
Elevation:1363 ft (415 m)
Runways:1
Longest:9186 × 98 ft (2800 × 30 m)

Time
Time Zone:UTC+3 (DST+4)

Weather
METAR:ORER 310700Z 32012KT 8000 SCT045 SCT080 17/16 Q1012 NOSIG
TAF:ORER 302200Z 3100/3124 32008KT CAVOK
BECMG 3102/3104 VRB03KT 8000 SCT040 BKN080
TEMPO3106/3118 SHRA
TEMPO 3112/3118 TS FEW025CB

Related Locations
Nearby:
Farthest:GMR: 11521 mi / 18542 km
Mangareva [Totegegie], Gambier Islands, PF

Find:

   beyond  
but within

Other Information
Maps:
NOTAMs:
Links:
Sources:

  
flag of Iraq   

Sectional Chart

Flight Planning
at skyvector.com

Satellite Image

Google Maps Satellite View

 

Copyright © 2004-2014 Karl L. Swartz. All rights reserved.
The Great Circle Mapper name and logo are trademarks of the Great Circle Mapper.
All other trademarks mentioned herein belong to their respective owners.
Please see credits for attibutions and further copyright information.

  Follow gcmap on Facebook Follow gcmap on Twitter

hCard Microformat

Geo Microformat